Home   Weather   Rothesay   Past weeks
Flag for Canada

Past Weather in Rothesay, New Brunswick, Canada — Yesterday and Last 2 Weeks

Now
50 °F

Drizzle. Fog.


Feels Like: 46 °F
Forecast: 52 / 46 °F
Wind: 10 mph from South

Location: Saint John

Current Time: Apr 20, 2019 at 11:52:43 pm

Latest Report: Apr 20, 2019 at 11:00 pm


Visibility: 1 mi

Pressure: 30.16 "Hg

Humidity: 100%

Dew Point: 50 °F

Location of RothesayLocation

Past Weather in Rothesay — Graph

°F

Rothesay Temperature Yesterday

Maximum temperature yesterday: 48 °F (at 2:00 pm)
Minimum temperature yesterday: 37 °F (at 1:00 am)
Average temperature yesterday: 44 °F

High & Low Weather Summary for the Past Weeks

 TemperatureHumidityPressure
High55 °F (Apr 14, 1:00 pm)100% (Apr 6, 5:00 am)30.32 "Hg (Apr 6, 5:00 am)
Low21 °F (Apr 12, 7:00 am)28% (Apr 12, 12:00 pm)29.14 "Hg (Apr 16, 12:44 am)
Average38 °F84%29.89 "Hg
* Reported Apr 5 10:00 pm — Apr 20 10:00 pm, Rothesay. Weather by CustomWeather, © 2019

Note: Actual official high and low records may vary slightly from our data, if they occured in-between our weather recording intervals... More about our weather records

Advertising

Rothesay Weather History for the Previous 24 Hours

Scroll right to see more
 ConditionsComfort  
Time TempWeatherWind HumidityBarometerVisibility
10:00 pm
Sat, Apr 20
48 °FDrizzle. Fog.3 mph100%30.15 "Hg1 mi
9:50 pm48 °FDrizzle. Fog.3 mph100%30.15 "Hg1 mi
9:00 pm46 °FFog.5 mph100%30.17 "Hg1 mi
8:42 pm48 °FFog.5 mph100%30.14 "Hg1 mi
8:00 pm48 °FFog.5 mph100%30.13 "Hg1 mi
7:44 pm48 °FFog.7 mph100%30.13 "Hg1 mi
7:34 pm48 °FFog.5 mph100%30.13 "Hg1 mi
7:00 pm48 °FLight rain. Fog.6 mph100%30.12 "Hg1 mi
6:00 pm50 °FLight rain. Fog.2 mph100%30.10 "Hg1 mi
5:39 pm50 °FLight rain. Fog.2 mph100%30.09 "Hg1 mi
5:00 pm50 °FLight rain. Fog.5 mph100%30.07 "Hg2 mi
4:22 pm50 °FLight rain. Fog.7 mph100%30.07 "Hg1 mi
3:00 pm50 °FLight rain. Fog.13 mph100%30.05 "Hg1 mi
2:00 pm50 °FLight rain. Fog.18 mph100%30.03 "Hg1 mi
1:00 pm48 °FLight rain. Fog.16 mph100%30.00 "Hg1 mi
12:00 pm48 °FLight rain. Fog.16 mph100%29.98 "Hg1 mi
11:00 am48 °FDrizzle. Fog.17 mph100%29.95 "Hg1 mi
10:00 am48 °FDrizzle. Fog.16 mph100%29.93 "Hg1 mi
9:40 am48 °FDrizzle. Fog.17 mph100%29.92 "Hg1 mi
9:07 am48 °FLight rain. Fog.20 mph100%29.91 "Hg1 mi
8:41 am48 °FLight rain. Fog.20 mph100%29.90 "Hg1 mi
8:07 am48 °FLight rain. Fog.16 mph100%29.89 "Hg2 mi
7:50 am46 °FDrizzle. Fog.14 mph100%29.89 "Hg2 mi
7:23 am46 °FDrizzle. Fog.9 mph100%29.89 "Hg1 mi
6:51 am46 °FDrizzle. Fog.8 mph100%29.89 "Hg1 mi
6:39 am46 °FLight rain. Fog.8 mph100%29.90 "Hg1 mi
6:00 am46 °FDrizzle. Fog.6 mph100%29.90 "Hg1 mi
5:15 am46 °FDrizzle. Fog.7 mph100%29.90 "Hg2 mi
5:00 am46 °FRain. Fog.8 mph100%29.90 "Hg3 mi
4:32 am46 °FDrizzle. Fog.8 mph100%29.89 "Hg1 mi
4:00 am46 °FDrizzle. Fog.9 mph100%29.89 "Hg1 mi
3:00 am46 °FDrizzle. Fog.10 mph100%29.88 "Hg1 mi
2:00 am48 °FLight rain. Fog.16 mph100%29.87 "Hg2 mi
1:00 am46 °FLight rain. Fog.16 mph100%29.87 "Hg2 mi
12:42 am46 °FDrizzle. Fog.16 mph100%29.86 "Hg2 mi
12:00 am46 °FDrizzle. Fog.17 mph100%29.88 "Hg1 mi
11:25 pm
Fri, Apr 19
48 °FDrizzle. Fog.15 mph100%29.87 "Hg1 mi
11:00 pm48 °FDrizzle. Fog.13 mph100%29.87 "Hg1 mi
Weather by CustomWeather, © 2019

See weather overview